Location: Newark
(33.8183°N, 118.0392°W)
Time: 11:15:00
(UTC+00:00)

ISS - Visible Passes

Search period start: 15 October 2019 00:00
Search period end: 25 October 2019 00:00
Orbit: 411 x 421 km, 51.6° (Epoch: 15 October)

Date Brightness Start Highest point End Pass type
(mag) Time Alt. Az. Time Alt. Az. Time Alt. Az.
21 Oct -0.8 13:18:26 10° S 13:20:51 18° SE 13:23:15 10° E visible
23 Oct -3.4 13:16:54 10° SW 13:20:14 66° SE 13:23:35 10° NE visible
24 Oct -2.1 12:29:58 19° S 12:31:46 32° SE 12:34:48 10° ENE visible
